Temp
-14 -14 -14 -14 -14 -14 -14 -14 -14 -14 -14 -14 -14 -14 -14 -14 -13 -13 -14 -14 -14 -14 -15 -15 -15 -15 -16 -17 -17 -17 -18 -18 -19 -20 -20 -21 -21 -22 -24 -24 -24 -24 -25 -25
-14 -14 -14 -14 -14 -14 -14 -14 -14 -15 -15 -15 -14 -14 -14 -14 -14 -14 -14 -14 -14 -14 -15 -15 -15 -15 -16 -17 -17 -17 -17 -18 -18 -19 -20 -21 -21 -22 -22 -23 -23 -24 -24 -24
-14 -14 -14 -15 -15 -14 -14 -14 -14 -14 -15 -15 -14 -14 -14 -14 -14 -14 -14 -14 -14 -15 -15 -15 -15 -15 -16 -16 -17 -17 -17 -18 -18 -19 -19 -20 -20 -21 -22 -22 -22 -23 -24 -24
-14 -14 -14 -15 -14 -15 -14 -14 -14 -14 -14 -14 -14 -14 -14 -14 -14 -14 -14 -14 -14 -15 -15 -15 -16 -15 -16 -16 -16 -17 -17 -17 -18 -18 -19 -19 -20 -20 -21 -22 -22 -22 -22 -22
-14 -14 -14 -14 -15 -15 -14 -15 -15 -15 -14 -13 -13 -14 -14 -14 -14 -14 -14 -14 -15 -15 -15 -15 -15 -16 -16 -16 -16 -16 -17 -17 -18 -18 -19 -19 -19 -20 -20 -21 -21 -22 -23 -23
-14 -14 -14 -15 -15 -14 -14 -15 -15 -14 -14 -13 -13 -13 -13 -13 -14 -14 -14 -15 -15 -15 -16 -16 -16 -16 -16 -16 -16 -16 -16 -17 -17 -18 -18 -19 -19 -19 -20 -20 -20 -21 -22 -22
-14 -14 -14 -15 -15 -14 -14 -14 -14 -14 -14 -14 -14 -13 -13 -13 -14 -14 -15 -15 -15 -16 -16 -16 -16 -16 -16 -16 -16 -16 -17 -17 -17 -18 -18 -18 -19 -19 -20 -20 -20 -21 -22 -22
-14 -14 -14 -15 -15 -14 -14 -14 -14 -14 -13 -13 -13 -13 -13 -13 -14 -14 -14 -15 -15 -15 -15 -15 -16 -16 -15 -16 -16 -16 -17 -17 -17 -17 -18 -19 -19 -19 -20 -20 -21 -21 -22 -22
-14 -14 -15 -15 -15 -14 -14 -14 -14 -13 -13 -13 -13 -13 -14 -14 -14 -14 -14 -14 -15 -15 -15 -15 -15 -16 -16 -16 -16 -17 -17 -17 -18 -18 -18 -18 -19 -19 -20 -20 -20 -21 -21 -22
-14 -14 -14 -14 -15 -15 -14 -14 -14 -14 -14 -14 -14 -14 -14 -14 -14 -14 -14 -14 -15 -15 -15 -15 -15 -15 -16 -16 -16 -17 -17 -17 -18 -18 -18 -18 -19 -19 -20 -20 -20 -21 -21 -22
-13 -14 -14 -14 -15 -15 -15 -14 -15 -15 -14 -13 -13 -14 -14 -14 -14 -14 -14 -14 -15 -15 -15 -15 -15 -16 -16 -16 -17 -17 -18 -18 -18 -18 -19 -19 -19 -20 -20 -21 -21 -21 -22 -22
-13 -14 -14 -14 -14 -15 -15 -15 -14 -14 -15 -14 -14 -13 -14 -14 -14 -15 -15 -15 -15 -15 -15 -16 -16 -16 -16 -17 -17 -18 -18 -18 -19 -19 -20 -20 -20 -21 -21 -21 -22 -22 -23 -23
-13 -13 -14 -14 -14 -14 -15 -15 -15 -15 -14 -15 -15 -15 -14 -14 -14 -15 -15 -15 -15 -16 -16 -16 -16 -17 -17 -17 -17 -18 -18 -19 -19 -20 -20 -20 -20 -21 -21 -22 -22 -23 -23 -24
-14 -13 -13 -13 -14 -14 -14 -14 -15 -14 -14 -14 -15 -15 -15 -15 -15 -15 -15 -15 -15 -16 -16 -17 -17 -17 -17 -17 -18 -18 -19 -19 -19 -20 -20 -20 -21 -21 -22 -22 -23 -24 -24 -24
-14 -14 -14 -14 -13 -14 -14 -14 -15 -15 -14 -13 -14 -15 -16 -16 -16 -15 -15 -15 -16 -16 -16 -17 -18 -18 -18 -18 -18 -19 -20 -20 -20 -20 -20 -21 -21 -21 -22 -23 -23 -24 -24 -25
-14 -14 -14 -14 -14 -14 -14 -14 -15 -15 -14 -13 -13 -14 -15 -16 -16 -15 -16 -16 -16 -16 -17 -17 -17 -19 -19 -19 -20 -20 -20 -20 -20 -20 -21 -21 -21 -22 -22 -23 -23 -23 -24 -25
-14 -14 -14 -14 -14 -14 -15 -14 -15 -15 -15 -14 -14 -13 -14 -15 -15 -16 -16 -16 -16 -16 -16 -17 -18 -18 -19 -20 -20 -20 -20 -20 -20 -20 -21 -21 -22 -22 -22 -23 -24 -24 -25 -25
-14 -14 -14 -14 -14 -14 -14 -15 -15 -15 -16 -16 -15 -15 -15 -15 -15 -15 -16 -15 -15 -15 -16 -17 -18 -18 -19 -19 -20 -19 -19 -20 -20 -21 -21 -21 -22 -22 -23 -23 -23 -24 -25 -25
-14 -14 -14 -14 -14 -14 -14 -14 -15 -15 -16 -16 -16 -16 -16 -15 -15 -16 -16 -16 -15 -15 -16 -17 -18 -18 -19 -19 -19 -19 -19 -20 -21 -21 -21 -22 -22 -23 -23 -24 -24 -24 -25 -25
-14 -14 -14 -14 -14 -14 -14 -14 -14 -14 -15 -15 -16 -16 -16 -16 -16 -16 -16 -16 -16 -16 -16 -17 -17 -18 -19 -19 -20 -20 -20 -21 -21 -22 -22 -22 -23 -23 -24 -25 -25 -25 -24 -25
-14 -14 -14 -14 -14 -14 -14 -14 -13 -13 -14 -14 -16 -16 -16 -16 -16 -16 -16 -16 -16 -15 -16 -17 -17 -18 -19 -19 -20 -20 -20 -21 -21 -22 -22 -23 -23 -23 -24 -24 -25 -25 -25 -25
-14 -14 -14 -14 -14 -14 -14 -12 -12 -14 -15 -15 -16 -16 -16 -16 -16 -16 -16 -16 -16 -17 -17 -17 -18 -19 -19 -20 -20 -20 -21 -21 -22 -22 -23 -23 -24 -25 -25 -25 -25 -25 -26 -26
-14 -14 -14 -14 -14 -13 -12 -12 -14 -15 -15 -16 -16 -16 -16 -16 -17 -17 -17 -17 -17 -17 -17 -18 -19 -20 -20 -20 -20 -21 -21 -22 -23 -23 -24 -24 -25 -26 -26 -26 -26 -26 -26 -27
-15 -14 -14 -14 -13 -12 -13 -14 -14 -15 -15 -16 -16 -16 -17 -17 -17 -17 -18 -18 -17 -18 -18 -19 -20 -20 -20 -20 -21 -21 -22 -23 -23 -24 -24 -25 -25 -25 -26 -26 -26 -26 -27 -27
-15 -15 -14 -13 -13 -13 -14 -14 -15 -15 -16 -16 -16 -17 -17 -17 -17 -17 -18 -18 -19 -19 -20 -20 -20 -21 -20 -21 -22 -22 -23 -23 -24 -24 -25 -25 -25 -26 -26 -26 -26 -27 -27 -28
-15 -14 -14 -13 -14 -14 -14 -15 -15 -16 -16 -16 -17 -17 -17 -17 -17 -17 -18 -19 -19 -20 -21 -21 -21 -21 -22 -22 -23 -23 -23 -24 -24 -25 -25 -25 -25 -26 -26 -26 -27 -27 -28 -29
-15 -14 -14 -14 -15 -14 -14 -15 -16 -16 -16 -16 -17 -17 -17 -17 -17 -17 -18 -20 -21 -20 -21 -21 -21 -22 -23 -23 -23 -24 -24 -24 -25 -25 -25 -26 -26 -26 -26 -27 -27 -28 -29 -29
Height
5796 5791 5787 5781 5775 5769 5764 5759 5753 5749 5746 5744 5741 5739 5735 5732 5726 5721 5715 5707 5700 5692 5683 5675 5665 5656 5647 5638 5630 5621 5612 5604 5596 5590 5582 5576 5570 5565 5561 5560 5559 5556 5554 5556
5793 5790 5786 5780 5774 5768 5763 5757 5751 5746 5743 5741 5739 5736 5734 5729 5725 5719 5713 5707 5700 5691 5682 5675 5666 5658 5650 5642 5634 5625 5617 5609 5603 5595 5590 5582 5576 5571 5566 5562 5559 5557 5556 5555
5791 5788 5783 5778 5773 5767 5763 5757 5751 5745 5741 5739 5736 5734 5732 5728 5723 5718 5711 5706 5698 5691 5683 5674 5666 5658 5651 5644 5636 5629 5621 5612 5605 5598 5591 5585 5579 5574 5569 5566 5562 5558 5556 5554
5788 5785 5781 5776 5771 5765 5761 5755 5748 5742 5738 5736 5733 5731 5729 5726 5722 5717 5710 5704 5697 5690 5682 5675 5667 5660 5652 5646 5638 5631 5623 5616 5608 5601 5594 5587 5582 5577 5571 5567 5564 5561 5557 5552
5785 5782 5778 5773 5768 5763 5758 5752 5748 5740 5736 5734 5731 5730 5728 5724 5720 5715 5710 5703 5696 5688 5681 5674 5668 5661 5654 5647 5640 5632 5625 5618 5610 5603 5596 5590 5584 5578 5573 5568 5564 5560 5556 5553
5781 5778 5774 5770 5766 5762 5757 5751 5744 5739 5735 5732 5729 5728 5726 5722 5717 5713 5708 5702 5696 5688 5682 5674 5667 5661 5655 5648 5640 5633 5626 5619 5612 5604 5598 5591 5586 5579 5573 5568 5563 5559 5555 5551
5778 5775 5772 5768 5763 5760 5755 5751 5745 5740 5735 5732 5730 5727 5723 5719 5716 5711 5706 5700 5694 5687 5680 5674 5667 5661 5655 5648 5641 5634 5627 5619 5612 5606 5598 5591 5585 5578 5572 5567 5561 5556 5552 5548
5774 5771 5768 5765 5761 5757 5753 5749 5745 5740 5735 5731 5727 5724 5721 5717 5713 5708 5703 5697 5692 5685 5678 5672 5667 5660 5655 5648 5640 5634 5626 5619 5611 5605 5597 5592 5584 5577 5571 5566 5560 5553 5549 5544
5770 5768 5765 5762 5757 5755 5751 5747 5742 5738 5735 5731 5727 5723 5719 5715 5710 5705 5699 5693 5687 5682 5676 5670 5664 5658 5651 5645 5640 5632 5625 5618 5611 5602 5596 5588 5582 5575 5569 5563 5557 5549 5543 5537
5767 5763 5761 5758 5755 5751 5748 5745 5740 5736 5733 5729 5724 5721 5716 5712 5707 5701 5695 5690 5684 5678 5673 5666 5661 5656 5649 5642 5635 5629 5622 5616 5608 5601 5593 5587 5579 5572 5565 5558 5554 5544 5537 5532
5763 5760 5757 5753 5751 5748 5745 5741 5737 5735 5731 5726 5721 5716 5712 5707 5702 5697 5692 5687 5680 5673 5667 5661 5656 5651 5646 5639 5633 5626 5619 5612 5605 5597 5589 5582 5573 5566 5559 5553 5544 5538 5532 5526
5758 5756 5753 5749 5746 5744 5741 5738 5734 5731 5724 5719 5716 5711 5707 5702 5698 5693 5689 5683 5676 5669 5662 5657 5651 5645 5641 5635 5628 5621 5615 5608 5600 5592 5584 5575 5568 5559 5552 5545 5538 5531 5524 5518
5753 5750 5748 5745 5741 5738 5735 5732 5727 5725 5724 5720 5711 5705 5701 5697 5692 5688 5683 5678 5672 5665 5659 5652 5646 5640 5635 5630 5624 5615 5610 5602 5595 5586 5578 5570 5561 5554 5546 5538 5531 5524 5517 5510
5747 5744 5741 5738 5736 5733 5729 5726 5721 5717 5712 5712 5710 5701 5694 5690 5685 5680 5675 5671 5665 5660 5653 5646 5640 5633 5628 5624 5618 5610 5603 5595 5587 5580 5571 5563 5554 5546 5539 5530 5523 5515 5508 5501
5738 5736 5734 5731 5729 5726 5723 5719 5714 5709 5704 5699 5698 5697 5689 5683 5678 5673 5668 5662 5656 5651 5646 5639 5633 5627 5619 5616 5611 5602 5595 5588 5579 5571 5563 5555 5547 5539 5531 5522 5513 5506 5499 5491
5730 5728 5725 5721 5719 5717 5713 5712 5709 5702 5697 5692 5687 5690 5686 5677 5669 5663 5657 5652 5647 5640 5636 5631 5623 5618 5610 5605 5601 5593 5585 5578 5569 5562 5553 5544 5537 5529 5520 5512 5503 5495 5487 5480
5722 5719 5715 5712 5709 5706 5703 5700 5696 5692 5688 5683 5679 5677 5674 5666 5659 5654 5648 5642 5637 5631 5627 5621 5613 5606 5600 5595 5590 5581 5575 5566 5559 5551 5543 5535 5526 5518 5509 5501 5492 5483 5477 5470
5711 5708 5705 5700 5699 5697 5694 5689 5684 5680 5675 5672 5668 5668 5662 5656 5649 5641 5636 5631 5626 5619 5613 5609 5602 5596 5588 5583 5577 5571 5565 5556 5547 5539 5531 5524 5515 5506 5497 5489 5480 5473 5465 5458
5698 5698 5693 5689 5687 5687 5684 5679 5673 5670 5666 5659 5658 5655 5650 5646 5639 5631 5626 5618 5614 5607 5603 5598 5593 5588 5577 5570 5563 5557 5551 5544 5536 5526 5518 5510 5501 5491 5482 5474 5467 5460 5453 5445
5686 5685 5682 5677 5678 5674 5670 5662 5658 5657 5655 5649 5648 5644 5639 5633 5627 5620 5614 5606 5602 5594 5594 5586 5581 5577 5568 5559 5553 5545 5536 5529 5522 5514 5504 5494 5485 5476 5469 5460 5452 5444 5439 5432
5674 5672 5670 5667 5664 5660 5654 5647 5643 5643 5642 5639 5639 5633 5627 5621 5615 5607 5599 5593 5587 5583 5581 5574 5568 5566 5557 5548 5541 5533 5524 5515 5506 5498 5489 5480 5472 5466 5458 5450 5438 5430 5423 5416
5660 5659 5655 5653 5650 5643 5638 5630 5632 5633 5628 5626 5622 5618 5613 5607 5600 5593 5585 5579 5573 5569 5564 5560 5555 5551 5542 5535 5527 5518 5510 5500 5490 5481 5473 5463 5454 5444 5437 5430 5422 5414 5406 5398
5642 5640 5639 5638 5635 5626 5619 5620 5624 5619 5614 5612 5608 5603 5598 5591 5586 5578 5572 5566 5561 5555 5549 5545 5542 5534 5528 5520 5511 5501 5493 5484 5475 5466 5455 5446 5438 5428 5418 5411 5402 5395 5387 5378
5623 5622 5621 5621 5617 5611 5613 5615 5611 5608 5602 5599 5593 5588 5583 5577 5570 5564 5556 5551 5546 5540 5537 5532 5524 5518 5511 5503 5495 5487 5477 5468 5459 5450 5440 5430 5421 5412 5400 5390 5382 5375 5366 5356
5604 5605 5602 5606 5605 5602 5604 5602 5598 5594 5589 5585 5579 5574 5569 5563 5555 5549 5542 5535 5530 5525 5521 5514 5508 5502 5494 5486 5477 5469 5461 5451 5441 5431 5421 5411 5402 5392 5382 5370 5361 5351 5342 5333
5585 5587 5590 5593 5593 5593 5590 5587 5584 5579 5575 5570 5565 5560 5553 5548 5541 5534 5529 5523 5517 5511 5503 5497 5491 5484 5476 5467 5459 5450 5441 5431 5421 5410 5400 5390 5380 5370 5361 5350 5338 5327 5317 5307
5569 5576 5579 5579 5579 5578 5575 5571 5569 5564 5561 5557 5549 5543 5538 5531 5525 5520 5514 5508 5501 5494 5488 5481 5474 5466 5458 5449 5440 5430 5420 5409 5398 5388 5377 5366 5355 5345 5335 5325 5314 5301 5290 5279
Wind_Speed
16 19 23 27 28 27 32 35 26 19 17 16 18 21 22 23 27 30 34 38 41 43 43 43 45 46 45 46 47 49 48 47 44 42 42 41 40 31 20 11 8 9 10 10
15 19 21 26 27 26 32 34 30 20 16 14 16 19 21 22 26 29 33 36 38 41 42 41 41 42 42 42 44 45 47 47 45 41 39 38 37 36 32 24 16 10 9 9
15 19 22 27 23 25 29 33 33 19 14 12 14 17 20 21 26 28 32 34 35 37 38 40 39 41 40 40 40 41 43 45 44 43 41 39 37 35 33 31 27 21 13 13
15 17 21 23 25 27 29 32 32 26 14 10 12 16 20 20 24 27 29 32 34 37 36 36 37 40 39 39 36 38 40 41 42 42 40 39 37 35 32 30 29 27 26 21
14 17 20 21 23 30 32 32 32 23 19 11 13 16 19 21 22 24 27 31 33 36 37 36 34 37 37 38 37 37 38 40 40 40 39 38 37 35 33 32 30 29 26 24
15 17 20 23 23 27 30 32 33 26 19 15 15 16 20 21 20 24 27 30 32 36 37 36 33 35 35 37 38 40 39 38 38 38 36 37 36 35 33 32 33 31 29 27
15 16 18 21 24 26 30 30 29 28 22 19 20 21 22 22 24 27 28 31 34 36 35 31 32 31 34 37 40 41 40 40 39 37 37 37 36 34 33 33 32 32 31 29
16 16 16 19 24 24 27 27 26 26 23 20 20 19 21 22 26 26 27 30 33 35 33 31 32 33 35 38 43 41 40 39 40 39 37 36 36 35 33 32 32 35 34 31
15 15 16 18 22 21 25 25 23 23 21 19 19 19 21 20 22 24 27 31 33 33 32 33 33 33 35 38 42 42 41 41 41 40 38 39 36 34 32 34 34 34 34 33
14 15 18 19 20 20 23 22 22 24 22 20 19 19 20 22 23 26 28 33 35 34 33 35 35 34 35 37 41 44 43 43 42 41 40 39 39 36 34 35 36 35 37 38
18 17 19 21 22 20 21 25 24 23 25 24 24 22 24 24 26 29 30 32 34 34 34 36 38 36 36 36 39 43 46 46 45 45 43 41 39 38 37 36 37 38 39 39
19 21 22 23 23 22 22 24 26 27 33 33 26 26 27 29 31 31 30 32 34 37 38 38 38 37 37 35 39 42 48 46 45 46 43 42 41 38 40 39 39 40 40 41
22 23 24 26 24 26 28 29 30 30 27 27 32 34 33 33 35 34 34 36 33 35 37 37 39 39 40 36 37 44 48 50 48 46 46 43 42 41 41 41 41 41 41 41
25 25 26 26 26 26 26 30 31 33 36 29 25 33 38 39 39 38 38 40 41 36 37 38 40 40 43 38 38 44 49 52 56 46 46 45 45 43 43 43 42 41 42 42
31 29 30 30 29 28 28 27 30 32 37 38 34 27 35 39 42 42 42 44 45 41 38 39 38 39 44 40 39 45 48 52 57 48 46 46 48 47 46 45 43 42 43 44
34 36 36 35 33 31 34 31 29 33 33 34 36 29 31 39 43 46 49 50 49 46 41 41 42 40 43 44 41 45 49 52 55 49 48 48 50 50 50 49 47 46 46 48
39 37 39 40 39 38 35 38 38 37 34 34 37 32 33 41 45 48 52 54 52 50 46 44 44 43 47 44 41 50 48 54 55 53 52 51 53 53 54 51 49 47 49 52
45 44 44 44 44 45 39 39 44 43 41 40 38 33 35 42 47 52 54 53 53 53 49 47 46 46 47 49 49 53 51 55 57 55 55 55 55 57 57 54 51 49 52 53
45 48 45 48 48 45 45 47 48 49 47 46 42 37 44 45 47 51 56 54 54 54 50 48 48 48 53 54 55 55 57 58 58 58 58 58 59 61 61 57 54 52 53 54
49 46 50 51 49 51 53 55 57 54 53 50 40 41 48 48 49 51 58 56 56 56 52 53 54 52 54 55 56 56 59 60 62 59 60 62 64 65 63 60 57 56 55 55
49 47 47 50 54 56 58 61 62 58 56 51 41 41 42 43 45 53 57 57 60 61 57 58 61 57 54 57 58 60 60 63 64 64 64 66 68 66 62 58 59 59 58 57
52 50 50 52 55 62 64 64 61 57 55 52 46 46 47 44 52 55 59 60 63 62 63 63 62 60 61 58 60 63 64 66 67 68 68 70 70 70 67 62 60 61 61 62
54 56 60 54 59 66 69 65 61 61 57 52 46 49 46 51 55 58 62 61 63 62 64 64 64 62 60 62 64 64 67 69 69 70 72 73 71 71 68 65 65 65 65 67
60 59 60 59 63 66 67 64 66 65 58 52 52 52 50 55 59 61 60 62 62 64 66 65 64 63 63 66 66 68 69 71 71 72 74 74 71 68 69 70 70 70 71 71
69 63 63 64 64 66 64 65 65 66 58 55 57 55 53 57 60 60 60 62 64 66 64 64 64 64 66 65 68 70 71 72 74 77 76 73 71 72 73 74 75 76 76 75
68 69 66 64 65 65 66 64 65 56 54 60 58 56 58 62 68 64 62 64 64 60 61 65 64 65 66 69 71 73 75 76 79 78 76 75 76 77 77 79 80 80 79 78
66 65 67 68 65 65 63 65 60 57 61 58 57 61 64 65 66 64 63 59 60 65 66 67 68 69 70 72 74 76 79 81 80 78 79 80 81 83 84 84 84 84 83 81
Wind_Direction
339 338 347 347 345 345 351 355 343 335 329 328 332 338 347 351 354 359 1 6 8 7 9 11 10 12 12 11 12 12 13 14 13 14 17 22 28 30 28 19 354 321 285 259
326 341 344 343 340 346 346 350 353 338 328 318 322 334 346 351 357 0 2 8 7 6 7 7 8 10 11 10 11 11 12 12 11 12 13 14 16 22 29 25 18 353 311 284
323 341 338 342 343 345 348 348 354 344 338 322 319 327 345 352 356 359 0 7 5 6 5 3 3 7 10 10 10 10 9 9 8 8 8 8 8 7 14 19 22 12 352 316
324 340 342 348 347 343 345 349 351 348 337 322 316 326 344 349 351 356 358 1 2 4 5 2 2 5 6 9 10 11 8 7 6 6 6 4 3 1 1 3 8 11 10 4
321 334 342 345 345 349 349 351 354 348 335 322 318 325 341 345 342 350 354 358 1 360 1 360 2 2 3 7 9 9 8 4 3 5 3 1 359 358 355 351 353 354 357 3
318 326 337 337 339 345 353 352 358 356 345 336 319 323 339 343 340 346 353 356 360 358 357 359 1 0 0 5 7 6 4 2 2 359 2 359 358 356 353 348 343 343 343 345
312 322 327 326 333 341 351 352 1 2 352 343 337 333 336 341 343 345 350 354 359 356 358 359 357 357 359 2 4 2 360 358 357 359 357 359 355 354 350 346 339 336 337 335
303 312 319 320 328 335 340 346 356 5 0 355 348 339 339 344 343 347 347 350 355 355 354 356 355 354 358 359 0 359 357 354 352 355 355 354 355 351 346 344 336 335 334 328
303 304 311 314 318 326 332 337 346 352 356 355 356 354 346 346 345 343 348 348 350 350 349 348 353 352 351 352 355 355 352 350 347 349 351 349 351 350 346 346 337 333 327 321
296 301 308 304 310 311 323 325 337 342 345 338 341 341 341 339 344 346 345 346 346 345 341 342 344 346 344 345 346 351 349 347 344 343 344 347 346 346 344 341 337 329 324 323
302 303 305 302 300 302 308 315 322 329 334 336 335 334 335 338 341 341 338 342 342 337 335 336 336 338 339 336 338 343 348 343 342 340 341 343 343 341 339 335 331 328 325 324
301 299 301 300 292 292 296 303 309 312 321 324 326 325 328 329 331 336 338 334 334 333 331 328 328 327 330 329 331 334 345 343 338 338 338 339 340 337 334 332 328 328 327 327
300 298 300 303 299 288 286 293 299 303 304 312 318 321 320 321 322 325 330 333 327 326 324 323 320 320 322 325 326 327 334 339 337 335 336 336 337 335 333 329 329 329 328 326
298 302 301 304 301 298 295 290 293 299 301 303 303 309 314 317 319 321 324 327 329 320 318 319 316 315 316 320 321 321 325 330 334 333 334 333 334 333 332 329 328 326 323 322
293 296 301 303 304 304 297 297 295 294 298 302 302 308 313 316 319 322 323 323 323 320 314 315 312 312 311 315 317 314 317 323 331 330 331 332 334 334 334 328 324 323 322 324
292 297 299 300 303 302 300 298 293 295 301 300 301 302 308 312 314 320 322 321 321 318 314 313 310 311 308 311 314 310 314 323 328 327 329 332 335 334 333 328 325 324 325 325
286 290 293 295 297 297 301 304 300 296 294 297 305 306 316 317 312 314 321 320 321 319 318 314 310 309 310 313 307 307 318 326 327 325 326 330 333 333 332 327 323 325 322 319
283 284 288 290 292 300 301 298 295 297 294 297 301 309 308 304 307 309 314 318 324 318 317 315 310 311 309 308 307 311 316 325 325 323 324 327 329 332 330 326 323 321 318 317
279 285 282 287 290 294 297 292 292 293 289 293 304 305 308 307 304 304 312 311 318 317 314 315 312 313 310 309 308 312 315 320 323 321 323 326 328 331 328 324 319 317 315 315
279 279 277 285 290 290 290 291 293 296 295 299 305 298 300 304 299 302 309 310 317 316 315 314 315 316 313 308 308 311 315 318 320 320 323 325 327 328 324 320 316 314 314 312
273 276 277 283 285 284 284 287 291 299 301 302 305 300 300 298 299 305 308 311 314 315 316 311 313 317 312 310 308 311 313 316 318 319 322 324 324 322 319 316 312 309 310 309
270 267 273 279 279 279 280 284 291 301 299 302 302 303 304 295 302 307 309 310 311 314 311 310 312 314 312 309 307 310 313 317 318 320 322 322 320 317 316 313 309 309 309 308
263 266 265 272 275 275 279 284 293 295 296 303 301 303 302 300 306 306 306 305 307 306 307 310 311 310 308 306 309 311 314 315 317 319 320 318 315 312 310 310 309 309 308 305
258 263 264 267 272 278 282 285 289 290 298 302 301 301 299 300 306 304 299 297 304 302 305 307 306 306 305 307 309 311 312 314 316 316 317 314 312 310 309 309 309 308 307 305
254 258 265 267 269 277 283 284 288 291 297 294 299 299 296 297 301 301 295 293 293 298 303 301 303 303 305 306 308 310 312 314 314 315 314 312 311 310 310 309 309 308 306 305
251 256 263 269 270 279 283 283 287 290 290 292 292 294 295 297 301 301 297 295 297 299 295 298 301 303 305 307 309 311 313 313 314 313 313 312 312 311 311 310 309 307 306 305
257 260 265 271 270 276 279 280 283 282 285 290 290 291 295 296 299 301 298 295 291 294 298 299 301 304 307 309 310 311 312 313 313 312 312 312 312 311 311 310 309 308 307 305